ROU538 CYUL-KDTW

Flight info

Callsign ROU538
Flight time 1h 26m
Altitude 38000
Route KESKA DCT SAVEX DCT KANUR DCT TUKIR Q806 BOBTA TPGUN2
Aircraft A319/M-SDE3FGHIRWY/LB1

Departure

Time 2026-05-07 19:57
Airport Montreal / Pierre Elliott Trudeau International Airport (CYUL)

Arrival

Time 2026-05-07 21:23
Airport Detroit Metropolitan Wayne County Airport (KDTW)
Time Latitude Longitude Altitude Speed Heading
2026-05-07 19:28 45.45698 -73.75394 127 ft 0 kts 118°
2026-05-07 19:42 45.45703 -73.75409 127 ft 2 kts 117°
2026-05-07 19:42 45.45710 -73.75428 127 ft 2 kts 118°
2026-05-07 19:42 45.45715 -73.75440 127 ft 2 kts 108°
2026-05-07 19:42 45.45715 -73.75461 127 ft 2 kts 70°
2026-05-07 19:43 45.45707 -73.75479 127 ft 1 kts 36°
2026-05-07 19:43 45.45701 -73.75484 127 ft 1 kts 22°
2026-05-07 19:43 45.45697 -73.75485 127 ft 0 kts 25°
2026-05-07 19:46 45.45704 -73.75481 127 ft 2 kts 26°
2026-05-07 19:46 45.45727 -73.75469 127 ft 4 kts
2026-05-07 19:46 45.45757 -73.75485 127 ft 5 kts 314°
2026-05-07 19:46 45.45763 -73.75543 127 ft 7 kts 253°
2026-05-07 19:47 45.45747 -73.75618 127 ft 8 kts 253°
2026-05-07 19:47 45.45727 -73.75706 127 ft 10 kts 250°
2026-05-07 19:47 45.45739 -73.75804 127 ft 11 kts 309°
2026-05-07 19:47 45.45791 -73.75898 127 ft 12 kts 309°
2026-05-07 19:48 45.45871 -73.75941 127 ft 12 kts 349°
2026-05-07 19:48 45.45963 -73.75952 127 ft 13 kts 359°
2026-05-07 19:48 45.46056 -73.75957 127 ft 9 kts 358°
2026-05-07 19:48 45.46111 -73.75948 127 ft 8 kts 36°
2026-05-07 19:49 45.46126 -73.75863 127 ft 10 kts 87°
2026-05-07 19:49 45.46129 -73.75750 127 ft 12 kts 88°
2026-05-07 19:49 45.46133 -73.75599 127 ft 16 kts 87°
2026-05-07 19:49 45.46138 -73.75429 127 ft 17 kts 88°
2026-05-07 19:50 45.46143 -73.75249 127 ft 18 kts 88°
2026-05-07 19:50 45.46149 -73.75063 127 ft 19 kts 88°
2026-05-07 19:50 45.46154 -73.74873 127 ft 19 kts 88°
2026-05-07 19:50 45.46160 -73.74682 127 ft 16 kts 86°
2026-05-07 19:51 45.46137 -73.74556 127 ft 13 kts 126°
2026-05-07 19:51 45.46130 -73.74419 127 ft 14 kts 88°
2026-05-07 19:51 45.46135 -73.74266 127 ft 16 kts 87°
2026-05-07 19:51 45.46140 -73.74105 127 ft 16 kts 86°
2026-05-07 19:52 45.46203 -73.73972 127 ft 17 kts 42°
2026-05-07 19:52 45.46297 -73.73850 127 ft 19 kts 43°
2026-05-07 19:52 45.46401 -73.73714 127 ft 21 kts 43°
2026-05-07 19:52 45.46511 -73.73568 127 ft 22 kts 41°
2026-05-07 19:53 45.46630 -73.73413 127 ft 23 kts 41°
2026-05-07 19:53 45.46753 -73.73253 127 ft 24 kts 41°
2026-05-07 19:53 45.46881 -73.73083 127 ft 25 kts 43°
2026-05-07 19:53 45.47016 -73.72907 127 ft 26 kts 42°
2026-05-07 19:54 45.47154 -73.72726 127 ft 27 kts 43°
2026-05-07 19:54 45.47294 -73.72542 127 ft 28 kts 43°
2026-05-07 19:54 45.47437 -73.72354 127 ft 27 kts 43°
2026-05-07 19:54 45.47574 -73.72177 127 ft 26 kts 42°
2026-05-07 19:55 45.47704 -73.72005 127 ft 24 kts 42°
2026-05-07 19:55 45.47800 -73.71878 127 ft 17 kts 42°
2026-05-07 19:55 45.47849 -73.71772 127 ft 11 kts 111°
2026-05-07 19:55 45.47781 -73.71694 127 ft 13 kts 155°
2026-05-07 19:56 45.47697 -73.71639 127 ft 13 kts 176°
2026-05-07 19:56 45.47616 -73.71716 127 ft 24 kts 223°
2026-05-07 19:56 45.47286 -73.72147 127 ft 102 kts 223°
2026-05-07 19:56 45.46596 -73.73035 190 ft 157 kts 229°
2026-05-07 19:57 45.45775 -73.74048 917 ft 158 kts 226°
2026-05-07 19:57 45.44935 -73.74993 1724 ft 159 kts 224°
2026-05-07 19:57 45.44061 -73.75942 2482 ft 163 kts 225°
2026-05-07 19:57 45.43135 -73.76980 3053 ft 180 kts 225°
2026-05-07 19:58 45.42112 -73.78153 3596 ft 201 kts 225°
2026-05-07 19:58 45.40993 -73.79468 4252 ft 219 kts 225°
2026-05-07 19:58 45.40066 -73.81189 4917 ft 227 kts 255°
2026-05-07 19:58 45.40065 -73.83476 5507 ft 244 kts 284°
2026-05-07 19:59 45.40551 -73.85792 6446 ft 250 kts 287°
2026-05-07 19:59 45.41078 -73.88132 7411 ft 254 kts 286°
2026-05-07 19:59 45.41552 -73.90501 8399 ft 256 kts 284°
2026-05-07 19:59 45.42002 -73.92924 9389 ft 258 kts 284°
2026-05-07 20:00 45.42446 -73.95376 10361 ft 260 kts 283°
2026-05-07 20:00 45.42901 -73.97912 11000 ft 274 kts 283°
2026-05-07 20:00 45.43377 -74.00594 11642 ft 286 kts 283°
2026-05-07 20:00 45.43861 -74.03331 12503 ft 289 kts 283°
2026-05-07 20:01 45.44351 -74.06119 13351 ft 292 kts 283°
2026-05-07 20:01 45.44839 -74.08903 14174 ft 295 kts 283°
2026-05-07 20:01 45.45336 -74.11742 15022 ft 297 kts 283°
2026-05-07 20:01 45.45832 -74.14578 15815 ft 300 kts 282°
2026-05-07 20:02 45.46337 -74.17473 16591 ft 302 kts 282°
2026-05-07 20:02 45.46839 -74.20356 17348 ft 305 kts 282°
2026-05-07 20:02 45.47346 -74.23275 18083 ft 307 kts 282°
2026-05-07 20:02 45.47857 -74.26224 18795 ft 310 kts 282°
2026-05-07 20:03 45.48373 -74.29212 19510 ft 312 kts 281°
2026-05-07 20:03 45.48890 -74.32218 20190 ft 315 kts 281°
2026-05-07 20:03 45.49408 -74.35232 20836 ft 318 kts 281°
2026-05-07 20:03 45.49929 -74.38262 21483 ft 320 kts 281°
2026-05-07 20:04 45.50464 -74.41377 22139 ft 323 kts 281°
2026-05-07 20:04 45.50869 -74.44510 22722 ft 324 kts 274°
2026-05-07 20:04 45.50934 -74.47691 23323 ft 325 kts 266°
2026-05-07 20:04 45.50666 -74.50890 23915 ft 327 kts 260°
2026-05-07 20:05 45.50241 -74.54098 24474 ft 330 kts 259°
2026-05-07 20:05 45.49802 -74.57294 24986 ft 333 kts 259°
2026-05-07 20:05 45.49357 -74.60506 25510 ft 335 kts 259°
2026-05-07 20:05 45.48901 -74.63786 25999 ft 338 kts 259°
2026-05-07 20:06 45.48438 -74.67093 26479 ft 341 kts 258°
2026-05-07 20:06 45.47971 -74.70425 26964 ft 343 kts 258°
2026-05-07 20:06 45.47506 -74.73753 27434 ft 345 kts 258°
2026-05-07 20:06 45.47036 -74.77083 27818 ft 347 kts 258°
2026-05-07 20:07 45.46564 -74.80428 28215 ft 348 kts 258°
2026-05-07 20:07 45.46088 -74.83795 28594 ft 350 kts 258°
2026-05-07 20:07 45.45603 -74.87210 28944 ft 352 kts 258°
2026-05-07 20:07 45.45121 -74.90595 29274 ft 354 kts 258°
2026-05-07 20:08 45.44629 -74.94050 29590 ft 357 kts 258°
2026-05-07 20:08 45.44136 -74.97501 29920 ft 358 kts 258°
2026-05-07 20:08 45.43639 -75.00961 30233 ft 360 kts 258°
2026-05-07 20:08 45.43135 -75.04486 30505 ft 362 kts 258°
2026-05-07 20:09 45.42633 -75.07974 30765 ft 364 kts 258°
2026-05-07 20:09 45.42125 -75.11484 31028 ft 367 kts 258°
2026-05-07 20:09 45.41603 -75.15083 31256 ft 371 kts 258°
2026-05-07 20:10 45.40555 -75.22276 31764 ft 375 kts 258°
2026-05-07 20:10 45.40024 -75.25903 32024 ft 377 kts 258°
2026-05-07 20:10 45.39493 -75.29533 32294 ft 378 kts 258°
2026-05-07 20:10 45.38957 -75.33179 32587 ft 378 kts 258°
2026-05-07 20:11 45.38420 -75.36822 32865 ft 378 kts 258°
2026-05-07 20:11 45.37884 -75.40452 33129 ft 379 kts 257°
2026-05-07 20:11 45.37340 -75.44130 33428 ft 379 kts 257°
2026-05-07 20:11 45.36800 -75.47769 33745 ft 379 kts 257°
2026-05-07 20:12 45.36257 -75.51413 34057 ft 379 kts 257°
2026-05-07 20:12 45.35712 -75.55070 34365 ft 379 kts 257°
2026-05-07 20:12 45.35165 -75.58720 34671 ft 379 kts 257°
2026-05-07 20:12 45.34614 -75.62402 34966 ft 379 kts 257°
2026-05-07 20:13 45.34069 -75.66019 35238 ft 379 kts 257°
2026-05-07 20:13 45.33511 -75.69723 35505 ft 379 kts 257°
2026-05-07 20:13 45.32959 -75.73383 35751 ft 380 kts 257°
2026-05-07 20:13 45.32407 -75.77032 35987 ft 381 kts 257°
2026-05-07 20:14 45.31852 -75.80692 36189 ft 382 kts 257°
2026-05-07 20:14 45.31285 -75.84425 36374 ft 384 kts 257°
2026-05-07 20:14 45.30729 -75.88080 36565 ft 385 kts 257°
2026-05-07 20:14 45.30162 -75.91788 36735 ft 387 kts 257°
2026-05-07 20:15 45.29594 -75.95508 36886 ft 388 kts 257°
2026-05-07 20:15 45.29018 -75.99262 37040 ft 390 kts 257°
2026-05-07 20:15 45.28444 -76.02997 37194 ft 391 kts 257°
2026-05-07 20:15 45.27859 -76.06795 37339 ft 392 kts 257°
2026-05-07 20:16 45.27280 -76.10541 37477 ft 393 kts 257°
2026-05-07 20:16 45.26679 -76.14339 37610 ft 394 kts 256°
2026-05-07 20:16 45.25969 -76.18066 37748 ft 395 kts 253°
2026-05-07 20:17 45.24138 -76.25412 37826 ft 396 kts 248°
2026-05-07 20:17 45.21788 -76.32478 37830 ft 397 kts 243°
2026-05-07 20:18 45.19133 -76.39278 37835 ft 397 kts 243°
2026-05-07 20:18 45.16454 -76.46113 37833 ft 397 kts 243°
2026-05-07 20:19 45.13777 -76.52911 37834 ft 398 kts 243°
2026-05-07 20:19 45.11085 -76.59720 37835 ft 398 kts 243°
2026-05-07 20:20 45.08375 -76.66556 37834 ft 398 kts 242°
2026-05-07 20:20 45.05662 -76.73377 37834 ft 398 kts 242°
2026-05-07 20:21 45.02958 -76.80162 37830 ft 398 kts 242°
2026-05-07 20:21 45.00236 -76.86977 37830 ft 398 kts 242°
2026-05-07 20:22 44.97525 -76.93743 37833 ft 398 kts 242°
2026-05-07 20:22 44.94801 -77.00533 37832 ft 397 kts 242°
2026-05-07 20:23 44.92082 -77.07283 37833 ft 397 kts 242°
2026-05-07 20:23 44.89346 -77.14059 37837 ft 396 kts 242°
2026-05-07 20:24 44.86614 -77.20812 37833 ft 396 kts 242°
2026-05-07 20:24 44.83897 -77.27507 37834 ft 396 kts 242°
2026-05-07 20:25 44.81155 -77.34251 37835 ft 397 kts 243°
2026-05-07 20:25 44.78421 -77.40962 37832 ft 397 kts 243°
2026-05-07 20:26 44.75681 -77.47668 37827 ft 397 kts 242°
2026-05-07 20:26 44.72937 -77.54368 37829 ft 396 kts 242°
2026-05-07 20:27 44.70201 -77.61030 37837 ft 396 kts 243°
2026-05-07 20:27 44.67428 -77.67762 37841 ft 396 kts 242°
2026-05-07 20:28 44.64673 -77.74442 37838 ft 396 kts 242°
2026-05-07 20:28 44.61922 -77.81110 37847 ft 396 kts 242°
2026-05-07 20:29 44.59159 -77.87787 37850 ft 396 kts 242°
2026-05-07 20:29 44.56413 -77.94407 37854 ft 395 kts 242°
2026-05-07 20:30 44.53640 -78.01080 37855 ft 395 kts 242°
2026-05-07 20:30 44.50886 -78.07688 37855 ft 395 kts 242°
2026-05-07 20:31 44.48115 -78.14322 37858 ft 395 kts 242°
2026-05-07 20:31 44.45351 -78.20923 37857 ft 395 kts 242°
2026-05-07 20:32 44.42581 -78.27523 37856 ft 395 kts 242°
2026-05-07 20:32 44.39806 -78.34116 37864 ft 395 kts 242°
2026-05-07 20:33 44.37026 -78.40713 37870 ft 395 kts 242°
2026-05-07 20:33 44.34225 -78.47340 37867 ft 395 kts 242°
2026-05-07 20:34 44.31440 -78.53914 37872 ft 395 kts 242°
2026-05-07 20:34 44.28639 -78.60513 37869 ft 395 kts 242°
2026-05-07 20:35 44.25841 -78.67089 37869 ft 395 kts 242°
2026-05-07 20:35 44.23035 -78.73665 37867 ft 395 kts 242°
2026-05-07 20:36 44.20242 -78.80200 37869 ft 394 kts 242°
2026-05-07 20:36 44.17437 -78.86744 37870 ft 394 kts 242°
2026-05-07 20:37 44.14632 -78.93271 37865 ft 394 kts 242°
2026-05-07 20:37 44.11721 -78.99762 37861 ft 395 kts 241°
2026-05-07 20:38 44.08816 -79.06149 37855 ft 394 kts 241°
2026-05-07 20:38 44.05886 -79.12593 37852 ft 395 kts 241°
2026-05-07 20:39 44.02953 -79.19041 37850 ft 396 kts 241°
2026-05-07 20:39 44.00020 -79.25479 37852 ft 395 kts 241°
2026-05-07 20:40 43.97088 -79.31895 37842 ft 395 kts 241°
2026-05-07 20:40 43.94154 -79.38303 37847 ft 395 kts 241°
2026-05-07 20:41 43.91214 -79.44704 37862 ft 394 kts 241°
2026-05-07 20:41 43.88248 -79.51154 37867 ft 394 kts 241°
2026-05-07 20:42 43.85280 -79.57535 37874 ft 395 kts 239°
2026-05-07 20:42 43.81963 -79.63586 37886 ft 398 kts 234°
2026-05-07 20:43 43.78186 -79.69197 37888 ft 400 kts 229°
2026-05-07 20:43 43.73991 -79.74292 37887 ft 402 kts 224°
2026-05-07 20:44 43.69695 -79.79186 37890 ft 401 kts 225°
2026-05-07 20:44 43.65400 -79.84068 37886 ft 400 kts 225°
2026-05-07 20:45 43.61089 -79.88948 37883 ft 400 kts 225°
2026-05-07 20:45 43.56789 -79.93805 37879 ft 401 kts 225°
2026-05-07 20:46 43.52496 -79.98646 37882 ft 401 kts 225°
2026-05-07 20:46 43.48175 -80.03505 37879 ft 400 kts 225°
2026-05-07 20:47 43.43885 -80.08318 37882 ft 400 kts 225°
2026-05-07 20:47 43.39578 -80.13147 37881 ft 399 kts 225°
2026-05-07 20:48 43.35297 -80.17935 37886 ft 398 kts 225°
2026-05-07 20:48 43.31016 -80.22711 37883 ft 398 kts 225°
2026-05-07 20:49 43.26696 -80.27525 37884 ft 398 kts 225°
2026-05-07 20:49 43.22419 -80.32279 37884 ft 398 kts 225°
2026-05-07 20:50 43.18123 -80.37050 37883 ft 398 kts 225°
2026-05-07 20:50 43.13832 -80.41801 37884 ft 398 kts 225°
2026-05-07 20:51 43.09543 -80.46545 37886 ft 396 kts 226°
2026-05-07 20:51 43.05269 -80.51263 37886 ft 397 kts 225°
2026-05-07 20:52 43.00991 -80.55972 37890 ft 396 kts 225°
2026-05-07 20:52 42.96695 -80.60696 37890 ft 396 kts 226°
2026-05-07 20:53 42.92423 -80.65385 37896 ft 396 kts 225°
2026-05-07 20:53 42.88111 -80.70105 37899 ft 395 kts 225°
2026-05-07 20:53 42.85960 -80.72456 37702 ft 396 kts 225°
2026-05-07 20:54 42.83816 -80.74798 37491 ft 394 kts 225°
2026-05-07 20:54 42.81696 -80.77112 37287 ft 390 kts 225°
2026-05-07 20:54 42.79597 -80.79399 37072 ft 387 kts 225°
2026-05-07 20:54 42.77521 -80.81668 36817 ft 383 kts 227°
2026-05-07 20:55 42.75636 -80.84125 36473 ft 375 kts 233°
2026-05-07 20:55 42.74013 -80.86869 36011 ft 371 kts 240°
2026-05-07 20:55 42.72657 -80.89844 35436 ft 369 kts 245°
2026-05-07 20:55 42.71591 -80.92986 34807 ft 370 kts 251°
2026-05-07 20:56 42.70809 -80.96291 34137 ft 372 kts 257°
2026-05-07 20:56 42.70327 -80.99724 33450 ft 374 kts 262°
2026-05-07 20:56 42.70094 -81.03235 32786 ft 377 kts 265°
2026-05-07 20:56 42.69900 -81.06761 32093 ft 380 kts 265°
2026-05-07 20:57 42.69714 -81.10336 31360 ft 382 kts 264°
2026-05-07 20:57 42.69533 -81.13909 30634 ft 382 kts 264°
2026-05-07 20:57 42.69355 -81.17480 30175 ft 375 kts 264°
2026-05-07 20:57 42.69180 -81.20985 29760 ft 369 kts 264°
2026-05-07 20:58 42.69009 -81.24386 29373 ft 363 kts 264°
2026-05-07 20:58 42.68838 -81.27796 28892 ft 360 kts 264°
2026-05-07 20:58 42.68669 -81.31136 28361 ft 359 kts 264°
2026-05-07 20:58 42.68494 -81.34494 27823 ft 358 kts 263°
2026-05-07 20:59 42.68227 -81.37830 27185 ft 357 kts 262°
2026-05-07 20:59 42.67947 -81.41166 26530 ft 356 kts 262°
2026-05-07 20:59 42.67668 -81.44491 26017 ft 351 kts 262°
2026-05-07 20:59 42.67395 -81.47733 25548 ft 346 kts 262°
2026-05-07 21:00 42.67121 -81.50943 25143 ft 341 kts 262°
2026-05-07 21:00 42.66850 -81.54125 24721 ft 336 kts 262°
2026-05-07 21:00 42.66586 -81.57207 24339 ft 330 kts 262°
2026-05-07 21:00 42.66322 -81.60272 23960 ft 325 kts 263°
2026-05-07 21:01 42.66059 -81.63298 23543 ft 322 kts 263°
2026-05-07 21:01 42.65795 -81.66330 23081 ft 320 kts 262°
2026-05-07 21:01 42.65531 -81.69347 22625 ft 319 kts 262°
2026-05-07 21:01 42.65272 -81.72321 22146 ft 318 kts 262°
2026-05-07 21:02 42.65013 -81.75292 21745 ft 315 kts 262°
2026-05-07 21:02 42.64756 -81.78211 21365 ft 312 kts 263°
2026-05-07 21:02 42.64501 -81.81113 20942 ft 311 kts 263°
2026-05-07 21:02 42.64245 -81.84021 20496 ft 310 kts 263°
2026-05-07 21:03 42.63989 -81.86923 20091 ft 308 kts 263°
2026-05-07 21:03 42.63734 -81.89796 19659 ft 307 kts 263°
2026-05-07 21:03 42.63481 -81.92654 19217 ft 306 kts 263°
2026-05-07 21:03 42.63227 -81.95489 18787 ft 305 kts 263°
2026-05-07 21:04 42.62970 -81.98361 18355 ft 304 kts 263°
2026-05-07 21:04 42.62718 -82.01174 17936 ft 303 kts 264°
2026-05-07 21:04 42.62464 -82.04000 17531 ft 301 kts 263°
2026-05-07 21:04 42.62211 -82.06812 17124 ft 299 kts 263°
2026-05-07 21:05 42.61961 -82.09581 16734 ft 297 kts 263°
2026-05-07 21:05 42.61709 -82.12344 16334 ft 295 kts 264°
2026-05-07 21:05 42.61459 -82.15083 15924 ft 294 kts 264°
2026-05-07 21:05 42.61207 -82.17847 15526 ft 292 kts 264°
2026-05-07 21:06 42.60960 -82.20547 15136 ft 291 kts 264°
2026-05-07 21:06 42.60710 -82.23260 14745 ft 289 kts 264°
2026-05-07 21:06 42.60463 -82.25954 14353 ft 288 kts 264°
2026-05-07 21:06 42.60216 -82.28612 13966 ft 286 kts 264°
2026-05-07 21:07 42.59967 -82.31287 13575 ft 284 kts 264°
2026-05-07 21:07 42.59723 -82.33916 13171 ft 283 kts 264°
2026-05-07 21:07 42.59479 -82.36549 12761 ft 282 kts 265°
2026-05-07 21:07 42.59228 -82.39185 12346 ft 280 kts 264°
2026-05-07 21:08 42.58844 -82.41750 11948 ft 280 kts 258°
2026-05-07 21:08 42.58249 -82.44274 11549 ft 280 kts 253°
2026-05-07 21:08 42.57524 -82.46694 11157 ft 279 kts 252°
2026-05-07 21:08 42.56786 -82.49101 10766 ft 277 kts 252°
2026-05-07 21:09 42.56045 -82.51509 10376 ft 275 kts 251°
2026-05-07 21:09 42.55309 -82.53883 10101 ft 268 kts 252°
2026-05-07 21:09 42.54611 -82.56129 9986 ft 254 kts 252°
2026-05-07 21:09 42.53941 -82.58289 9859 ft 247 kts 252°
2026-05-07 21:10 42.53277 -82.60446 9491 ft 247 kts 252°
2026-05-07 21:10 42.52620 -82.62573 9150 ft 245 kts 252°
2026-05-07 21:10 42.51964 -82.64688 8823 ft 244 kts 252°
2026-05-07 21:10 42.51297 -82.66838 8500 ft 242 kts 251°
2026-05-07 21:11 42.50646 -82.68926 8180 ft 241 kts 251°
2026-05-07 21:11 42.49982 -82.71013 7858 ft 240 kts 251°
2026-05-07 21:11 42.48673 -82.75163 7217 ft 239 kts 255°
2026-05-07 21:12 42.48496 -82.77317 6974 ft 230 kts 279°
2026-05-07 21:12 42.49003 -82.79391 6968 ft 227 kts 297°
2026-05-07 21:12 42.49729 -82.81204 6959 ft 212 kts 297°
2026-05-07 21:12 42.50418 -82.82909 6955 ft 199 kts 297°
2026-05-07 21:13 42.51073 -82.84533 6958 ft 195 kts 297°
2026-05-07 21:13 42.51552 -82.86282 6845 ft 204 kts 272°
2026-05-07 21:13 42.51102 -82.88155 6725 ft 215 kts 240°
2026-05-07 21:13 42.50196 -82.89824 6602 ft 215 kts 239°
2026-05-07 21:14 42.49325 -82.91520 6475 ft 214 kts 240°
2026-05-07 21:14 42.48463 -82.93242 6346 ft 214 kts 241°
2026-05-07 21:14 42.47602 -82.94981 6217 ft 213 kts 242°
2026-05-07 21:14 42.46760 -82.96693 6089 ft 212 kts 241°
2026-05-07 21:15 42.45918 -82.98413 5960 ft 212 kts 242°
2026-05-07 21:15 42.45085 -83.00114 5829 ft 212 kts 242°
2026-05-07 21:15 42.44247 -83.01829 5695 ft 212 kts 242°
2026-05-07 21:15 42.43434 -83.03491 5561 ft 211 kts 241°
2026-05-07 21:16 42.42616 -83.05164 5425 ft 211 kts 241°
2026-05-07 21:16 42.41796 -83.06839 5233 ft 211 kts 241°
2026-05-07 21:16 42.40979 -83.08511 4991 ft 210 kts 242°
2026-05-07 21:16 42.40162 -83.10178 4740 ft 209 kts 242°
2026-05-07 21:17 42.39352 -83.11832 4480 ft 208 kts 241°
2026-05-07 21:17 42.38543 -83.13482 4219 ft 207 kts 241°
2026-05-07 21:17 42.37752 -83.15093 3986 ft 204 kts 242°
2026-05-07 21:17 42.36985 -83.16654 3764 ft 199 kts 241°
2026-05-07 21:18 42.36219 -83.18213 3493 ft 196 kts 241°
2026-05-07 21:18 42.35476 -83.19724 3279 ft 190 kts 242°
2026-05-07 21:18 42.34775 -83.21143 3264 ft 171 kts 242°
2026-05-07 21:18 42.34146 -83.22409 3224 ft 155 kts 243°
2026-05-07 21:19 42.33576 -83.23561 3150 ft 140 kts 244°
2026-05-07 21:19 42.33051 -83.24634 3054 ft 134 kts 244°
2026-05-07 21:19 42.32450 -83.25616 2967 ft 141 kts 227°
2026-05-07 21:19 42.31615 -83.26338 2792 ft 143 kts 217°
2026-05-07 21:20 42.30768 -83.26939 2590 ft 131 kts 216°
2026-05-07 21:20 42.29980 -83.27492 2403 ft 127 kts 218°
2026-05-07 21:20 42.29204 -83.28056 2244 ft 126 kts 220°
2026-05-07 21:20 42.28432 -83.28625 2082 ft 126 kts 219°
2026-05-07 21:21 42.27661 -83.29192 1917 ft 125 kts 220°
2026-05-07 21:21 42.26894 -83.29760 1751 ft 126 kts 219°
2026-05-07 21:21 42.26131 -83.30325 1579 ft 126 kts 218°
2026-05-07 21:21 42.25361 -83.30893 1417 ft 125 kts 219°
2026-05-07 21:22 42.24601 -83.31458 1227 ft 125 kts 218°
2026-05-07 21:22 42.23850 -83.32043 1085 ft 125 kts 218°
2026-05-07 21:22 42.23063 -83.32606 917 ft 130 kts 215°
2026-05-07 21:22 42.22263 -83.33176 743 ft 128 kts 217°
2026-05-07 21:23 42.21515 -83.33744 637 ft 116 kts 209°
2026-05-07 21:23 42.20953 -83.34156 636 ft 67 kts 207°
2026-05-07 21:23 42.20675 -83.34383 637 ft 32 kts 221°
2026-05-07 21:23 42.20576 -83.34547 637 ft 16 kts 239°
2026-05-07 21:24 42.20531 -83.34650 637 ft 12 kts 239°
2026-05-07 21:24 42.20478 -83.34752 637 ft 13 kts 224°
2026-05-07 21:24 42.20396 -83.34819 637 ft 13 kts 210°
2026-05-07 21:24 42.20311 -83.34882 637 ft 14 kts 208°
2026-05-07 21:25 42.20221 -83.34948 637 ft 14 kts 209°
2026-05-07 21:25 42.20179 -83.35034 637 ft 13 kts 270°
2026-05-07 21:25 42.20177 -83.35169 638 ft 15 kts 269°
2026-05-07 21:25 42.20175 -83.35329 639 ft 18 kts 269°
2026-05-07 21:26 42.20172 -83.35511 640 ft 20 kts 270°
2026-05-07 21:26 42.20169 -83.35710 640 ft 22 kts 270°
2026-05-07 21:26 42.20165 -83.35923 641 ft 22 kts 269°
2026-05-07 21:26 42.20163 -83.36135 641 ft 22 kts 272°
2026-05-07 21:27 42.20186 -83.36325 641 ft 13 kts 281°
2026-05-07 21:27 42.20222 -83.36407 641 ft 11 kts 351°
2026-05-07 21:27 42.20300 -83.36388 642 ft 11 kts 20°
2026-05-07 21:27 42.20370 -83.36337 642 ft 10 kts 32°
2026-05-07 21:28 42.20390 -83.36274 642 ft 6 kts 122°
2026-05-07 21:28 42.20369 -83.36225 642 ft 4 kts 120°
2026-05-07 21:28 42.20364 -83.36214 642 ft 0 kts 120°